Voltar ao catálogo

IXPE

AtivoCiênciaVLEO
NORAD 49954·PAYLOAD·🇺🇸 United States

Lançado Dec 9, 2021 de Cape Canaveral Space Force Station

Loading…

Próximas Passagens (próximas 24 horas)

TLE

AtualizadoSource: Space-Track

Época: Sep 14, 2026, 16:00 UTC

1 49954U 21121A   26257.66671296  .00009926  00000-0  52282-3 0  9991
2 49954   0.2310   0.0890 0006708 355.8556 121.6648 15.10964432  5800

Acompanhe IXPE em tempo real com AllMySat

Download on the App Store